Brest, Belarus

11:04 AM +03 on March 27, 2017 (GMT +0300)
Brest

Weather History for UMBB - February, 2014

Change the Weather History Date:

Friday, February 7, 2014

  Actual Average Record
Temperature  
Mean Temperature 37 °F -  
Max Temperature 43 °F - - ()
Min Temperature 32 °F - - ()
Degree Days  
Heating Degree Days 28    
Moisture  
Dew Point 31 °F    
Average Humidity 78    
Maximum Humidity 87    
Minimum Humidity 55    
Precipitation  
Precipitation 0.00 in - - ()
Sea Level Pressure  
Sea Level Pressure 29.84 in    
Wind  
Wind Speed 5 mph ()    
Max Wind Speed 9 mph    
Max Gust Speed 16 mph    
Visibility 4.7 miles    
Events      
T = Trace of Precipitation, MM = Missing Value Source: Averaged Metar Reports

Daily Weather History Graph

Daily Weather History Graph

Search for Another Location

Airport or City:

Trip Planner

Search our weather history database for the weather conditions in past years. The results will help you decide how hot, cold, wet, or windy it might be!

Date:

Astronomy

Feb. 07, 2014 Rise Set
Actual Time 8:55 AM +03 6:23 PM +03
Civil Twilight 8:19 AM +03 6:59 PM +03
Nautical Twilight 7:39 AM +03 7:39 PM +03
Astronomical Twilight 7:00 AM +03 8:19 PM +03
Moon 12:15 PM +03 (2/7) 2:57 AM +03 (2/7)
Length of Visible Light 10h 39m
Length of Day
9h 27m
First Quarter, 56% of the Moon is Illuminated
Feb 7
First Quarter
Feb 15
Full
Feb 22
Last Quarter
Mar 1
New
Mar 8
First Quarter

Hourly Weather History & Observations

Time (+03) Temp. Windchill Dew Point Humidity Pressure Visibility Wind Dir Wind Speed Gust Speed Precip Events Conditions
12:00 AM 33 °F - 29 °F 78% 29.90 in 4 mi SSW 4.5 mph - -   Mist
3:00 AM 35 °F - 31 °F 80% 29.90 in 3 mi SSW 4.5 mph - -   Mist
5:00 AM 35.6 °F 31.8 °F 32.0 °F 87% 29.86 in - SSW 4.5 mph - N/A   Mist
6:00 AM 35 °F - 31 °F 82% 29.90 in 3 mi SSW 4.5 mph - -   Mist
6:00 AM 35.6 °F 31.8 °F 32.0 °F 87% 29.86 in - SSW 4.5 mph - N/A   Mist
7:00 AM 35.6 °F 31.8 °F 32.0 °F 87% 29.86 in - SSW 4.5 mph - N/A   Mist
8:00 AM 35.6 °F 31.8 °F 32.0 °F 87% 29.86 in 2.8 mi South 4.5 mph - N/A   Mist
8:30 AM 35.6 °F 31.8 °F 32.0 °F 87% 29.86 in 2.8 mi South 4.5 mph - N/A   Mist
9:00 AM 34 °F - 30 °F 81% 29.90 in 4 mi South 4.5 mph - -   Mist
9:00 AM 35.6 °F 31.8 °F 32.0 °F 87% 29.86 in - South 4.5 mph - N/A   Mostly Cloudy
9:30 AM 35.6 °F 31.8 °F 32.0 °F 87% 29.86 in - South 4.5 mph - N/A   Mist
10:00 AM 33.8 °F 29.7 °F 30.2 °F 87% 29.86 in - SSW 4.5 mph - N/A   Mist
10:30 AM 33.8 °F - 30.2 °F 87% 29.86 in - South 2.2 mph - N/A   Mist
11:00 AM 33.8 °F 29.7 °F 30.2 °F 87% 29.83 in - South 4.5 mph - N/A   Mist
11:30 AM 33.8 °F 29.7 °F 30.2 °F 87% 29.83 in - South 4.5 mph - N/A   Mist
12:00 PM 36 °F - 29 °F 69% 29.87 in 6 mi South 6.7 mph - -  
12:00 PM 35.6 °F 31.8 °F 30.2 °F 81% 29.83 in - SSE 4.5 mph - N/A   Mist
12:30 PM 35.6 °F - 30.2 °F 81% 29.83 in 3.7 mi South 2.2 mph - N/A   Unknown
1:00 PM 39.2 °F 36.0 °F 32.0 °F 75% 29.83 in 3.7 mi SE 4.5 mph - N/A   Unknown
1:30 PM 39.2 °F 34.4 °F 32.0 °F 75% 29.83 in 4.3 mi SSE 6.7 mph - N/A   Unknown
2:00 PM 41.0 °F 36.5 °F 33.8 °F 76% 29.80 in 4.3 mi SE 6.7 mph - N/A   Unknown
2:30 PM 41.0 °F 36.5 °F 33.8 °F 76% 29.80 in 5.0 mi South 6.7 mph - N/A   Unknown
3:00 PM 42 °F - 31 °F 55% 29.81 in 9 mi SSE 8.9 mph - -   Clear
3:00 PM 41.0 °F 35.4 °F 33.8 °F 76% 29.80 in 5.0 mi South 8.9 mph - N/A   Unknown
3:30 PM 41.0 °F 35.4 °F 33.8 °F 76% 29.80 in 5.0 mi SSE 8.9 mph 15.7 mph N/A   Unknown
4:00 PM 42.8 °F 37.6 °F 32.0 °F 66% 29.77 in 5.0 mi SE 8.9 mph 15.7 mph N/A   Unknown
4:30 PM 42.8 °F 38.7 °F 32.0 °F 66% 29.77 in 5.0 mi SSE 6.7 mph - N/A   Unknown
6:00 PM 42 °F - 32 °F 57% 29.76 in 7 mi SSE 4.5 mph - -   Partly Cloudy
9:00 PM 39 °F - 32 °F 67% 29.73 in 6 mi SE 6.7 mph - -   Overcast